[[{"header":{"parameterUnit":"m.s-1","parameterCategory":1,"la1":30.2991,"la2":30.254,"lo1":-89.0895,"lo2":-89.0444,"dy":0.0017,"dx":0.0017,"nx":28,"ny":28,"refTime":"2023-04-03T21:00:00:Z","depth":0,"parameterNumber":2,"parameterNumberName":"U-component_of_WINDS"},"data":[0,0,0,0,0,0,0,0,0,0,0,0,0,0,0,0,0,0,0,0,0,0,0,0,0,0,0,0,0,0,0,0,0,0,0,0,0,0,0,0,0,0,0,0,0,0,0,0,0,0,0,0,0,0,0,0,0,0,0.6541,0.6541,0,0.6496,0.6495,0.6495,0.6489,0.6489,0.649,0.649,0.6447,0.6445,0.6444,0,0,0,0,0,0,0,0,0,0,0,0,0,0.6627,0.6625,0.6541,0.6541,0.654,0.6496,0.6495,0.6495,0.6489,0.6489,0.649,0.649,0.6447,0.6445,0.6444,0,0,0,0,0,0,0,0,0,0,0,0,0,0.6587,0.6625,0.6541,0.6532,0.653,0.6496,0.6495,0.6495,0.6489,0.6489,0.649,0.649,0.6448,0.6446,0.6443,0.6417,0,0,0.6436,0.6435,0,0,0,0,0,0,0,0,0.6589,0.6584,0.6534,0.6532,0.6531,0.6499,0.651,0.6469,0.6488,0.6504,0.649,0.6491,0.6464,0.646,0.645,0.6415,0.6413,0.6436,0.6435,0.6434,0.6433,0,0,0,0,0,0,0,0.6592,0.6585,0.6523,0.6533,0.6531,0.6531,0.6526,0.6502,0.6481,0.6503,0.6503,0.6497,0.6463,0.6453,0.6449,0.6412,0.6436,0.6434,0.6433,0.6432,0.6355,0.6355,0,0,0,0,0,0,0.6596,0.6588,0.6525,0.6522,0.6562,0.6529,0.6523,0.6508,0.6481,0.6478,0.6497,0.6497,0.6456,0.6452,0.6448,0.6416,0.6434,0.6432,0.643,0.6356,0.6355,0.6354,0,0,0,0,0,0,0.6598,0.659,0.6527,0.6555,0.6547,0.6527,0.651,0.6507,0.6497,0.6476,0.6473,0.6489,0.6457,0.6451,0.6425,0.6415,0.643,0.6428,0.6357,0.6356,0.6355,0.6353,0,0,0,0,0,0,0.66,0.6591,0.6579,0.6554,0.6545,0.6503,0.6509,0.6506,0.6492,0.6492,0.6469,0.6466,0.6457,0.6428,0.6423,0.6412,0.6427,0.6358,0.6356,0.6355,0.6354,0.6352,0.635,0,0,0,0,0,0.6603,0.658,0.6578,0.6571,0.653,0.6502,0.6497,0.6486,0.6491,0.6481,0.6468,0.6466,0.6417,0.6426,0.6419,0.6408,0.6358,0.6357,0.6355,0.6354,0.6352,0.635,0,0,0,0,0,0,0.6605,0.6577,0.6574,0.6543,0.6525,0.6501,0.6487,0.6484,0.6465,0.6466,0.6454,0.6449,0.6424,0.6413,0.6424,0.6382,0.6388,0.6385,0.639,0.6387,0.6386,0.6389,0.6425,0,0,0,0,0,0.6601,0.658,0.6557,0.6531,0.6523,0.6506,0.6494,0.6487,0.6469,0.6461,0.6447,0.643,0.6411,0.6399,0.638,0.6352,0.6348,0.6341,0.634,0.6338,0.6336,0.6323,0.6321,0.635,0.635,0.635,0,0,0.6594,0.6576,0.6563,0.6531,0.6517,0.6497,0.65,0.6478,0.6464,0.6458,0.6433,0.6422,0.6403,0.6376,0.6364,0.6367,0.6327,0.6337,0.6336,0.6334,0.6322,0.6319,0.6316,0.6349,0.6349,0.6349,0,0,0.657,0.6554,0.6532,0.6518,0.6495,0.6485,0.648,0.6457,0.645,0.6424,0.6421,0.6404,0.6371,0.6358,0.6347,0.6322,0.632,0.6316,0.6307,0.6295,0.6293,0.6291,0.6283,0.6281,0.6314,0.6314,0.6314,0,0.6564,0.6532,0.6521,0.65,0.6487,0.6481,0.646,0.6447,0.642,0.6413,0.6416,0.6375,0.6362,0.6333,0.6328,0.6318,0.6314,0.6319,0.6294,0.6292,0.629,0.6282,0.628,0.6314,0.6314,0.6314,0.6314,0,0.6527,0.6506,0.6491,0.6465,0.6451,0.6429,0.6417,0.6404,0.6399,0.6389,0.6365,0.6349,0.6327,0.632,0.6315,0.6292,0.6295,0.6296,0.6302,0.6287,0.628,0.6277,0.6313,0.6313,0.6314,0.6314,0,0,0.6502,0.6472,0.6467,0.6456,0.6433,0.6417,0.6397,0.6375,0.6366,0.6348,0.6332,0.6305,0.6307,0.6295,0.6289,0.6278,0.6261,0.6281,0.628,0.6279,0.6237,0.6237,0.6233,0.626,0.626,0.6259,0.6239,0,0.6477,0.644,0.643,0.6399,0.6381,0.6376,0.6359,0.6344,0.6335,0.6319,0.631,0.6291,0.6294,0.6287,0.6276,0.6266,0.6253,0.6267,0.6247,0.6246,0.6252,0.623,0.6229,0.621,0.6236,0.6236,0.6235,0,0.6442,0.6424,0.6392,0.6373,0.6365,0.6349,0.6331,0.6315,0.6299,0.6293,0.6281,0.6276,0.6257,0.6264,0.6239,0.6249,0.6241,0.6235,0.6234,0.6232,0.624,0.6228,0.6204,0.6202,0.6231,0.6231,0.6231,0,0.6429,0.6397,0.6374,0.6365,0.6342,0.6332,0.6322,0.6306,0.6295,0.6279,0.6272,0.6254,0.6245,0.6232,0.6224,0.623,0.62,0.6206,0.6197,0.6197,0.6191,0.6191,0.6166,0.6184,0.6184,0.6184,0.6184,0,0.6403,0.6383,0.6368,0.6354,0.6333,0.6323,0.6303,0.6293,0.628,0.6265,0.626,0.6247,0.6237,0.6222,0.6216,0.6197,0.6193,0.6189,0.6188,0.619,0.619,0.6184,0.6186,0.6183,0.6184,0.6184,0.6184,0,0.6384,0.6373,0.6348,0.6329,0.6324,0.6309,0.6294,0.6281,0.6273,0.6254,0.6249,0.6236,0.622,0.621,0.6189,0.6185,0.6164,0.6163,0.617,0.6169,0.6161,0.6162,0.6131,0.6127,0.6147,0.6147,0.6147,0,0.6368,0.6354,0.6333,0.6323,0.6313,0.6296,0.6285,0.6276,0.6265,0.6247,0.6236,0.6219,0.6205,0.6179,0.6168,0.6153,0.6152,0.6142,0.6149,0.6153,0.6153,0.6154,0.6154,0.6141,0.6141,0.6141,0.614,0,0.6342,0.6338,0.6321,0.6304,0.6291,0.6276,0.6262,0.6254,0.6243,0.6231,0.6214,0.6203,0.6182,0.6166,0.615,0.6141,0.614,0.6138,0.6135,0.6138,0.6142,0.6141,0.6167,0.6139,0.6139,0.6139,0.6139,0.6139,0.6325,0.6313,0.6297,0.628,0.6269,0.6256,0.6244,0.6234,0.6219,0.6201,0.6197,0.6179,0.6166,0.6144,0.6136,0.6123,0.6124,0.612,0.6119,0.6118,0.6119,0.6144,0.612,0.612,0.612,0.612,0.612,0,0.63,0.629,0.6274,0.6255,0.6242,0.6241,0.6227,0.6216,0.62,0.6188,0.6174,0.6156,0.614,0.6129,0.6114,0.6106,0.6105,0.6103,0.6103,0.6102,0.6117,0.6122,0.6104,0.6104,0.6104,0.6104,0.6104,0.6104,0.6285,0.6265,0.6259,0.6234,0.6224,0.6206,0.6198,0.6188,0.6178,0.6157,0.6144,0.6137,0.6126,0.611,0.6097,0.6094,0.6089,0.6087,0.6084,0.6099,0.6101,0.6102,0.6106,0.6086,0.6086,0.607,0.607,0.607]},{"header":{"parameterUnit":"m.s-1","parameterCategory":1,"la1":30.2991,"la2":30.254,"lo1":-89.0895,"lo2":-89.0444,"dy":0.0017,"dx":0.0017,"nx":28,"ny":28,"refTime":"2023-04-03T21:00:00:Z","depth":0,"parameterNumber":3,"parameterNumberName":"V-component_of_WINDS"},"data":[0,0,0,0,0,0,0,0,0,0,0,0,0,0,0,0,0,0,0,0,0,0,0,0,0,0,0,0,0,0,0,0,0,0,0,0,0,0,0,0,0,0,0,0,0,0,0,0,0,0,0,0,0,0,0,0,0,0,5.2174,5.2173,0,5.2148,5.2148,5.2148,5.2129,5.2129,5.2129,5.2128,5.2099,5.2098,5.2098,0,0,0,0,0,0,0,0,0,0,0,0,0,5.2203,5.2203,5.2174,5.2173,5.2173,5.2148,5.2148,5.2148,5.2129,5.2129,5.2129,5.2128,5.2099,5.2098,5.2098,0,0,0,0,0,0,0,0,0,0,0,0,0,5.2185,5.2203,5.2174,5.2161,5.2159,5.2149,5.2148,5.2148,5.2129,5.2129,5.2128,5.2128,5.2099,5.2098,5.2098,5.2096,0,0,5.2095,5.2094,0,0,0,0,0,0,0,0,5.2186,5.2184,5.2163,5.2162,5.216,5.2142,5.2148,5.213,5.2129,5.214,5.2128,5.2128,5.2113,5.2111,5.2107,5.2095,5.2094,5.2095,5.2094,5.2094,5.2093,0,0,0,0,0,0,0,5.2188,5.2185,5.2164,5.2163,5.2161,5.2155,5.2153,5.2144,5.2128,5.2139,5.2138,5.2135,5.2112,5.2108,5.2106,5.2093,5.2095,5.2094,5.2093,5.2093,5.2081,5.2082,0,0,0,0,0,0,5.2191,5.2186,5.2164,5.2163,5.2173,5.2155,5.2152,5.2148,5.2128,5.2125,5.2136,5.2135,5.2109,5.2107,5.2105,5.2103,5.2094,5.2093,5.2092,5.2081,5.2081,5.2082,0,0,0,0,0,0,5.2192,5.219,5.2165,5.2174,5.2171,5.2155,5.215,5.2147,5.2143,5.2126,5.2122,5.2134,5.2109,5.2106,5.2099,5.2102,5.2092,5.2091,5.2081,5.2081,5.2082,5.21,0,0,0,0,0,0,5.2193,5.219,5.219,5.2174,5.217,5.2161,5.215,5.2147,5.2142,5.214,5.2123,5.212,5.2109,5.2101,5.2098,5.2101,5.2091,5.208,5.2081,5.2081,5.2099,5.2101,5.2103,0,0,0,0,0,5.2194,5.2195,5.219,5.2187,5.217,5.2161,5.2159,5.2147,5.2142,5.2141,5.2131,5.2121,5.2102,5.21,5.2097,5.2099,5.208,5.2081,5.2081,5.2098,5.2101,5.2103,0,0,0,0,0,0,5.2209,5.2192,5.2187,5.2183,5.2174,5.2158,5.2157,5.2149,5.214,5.2139,5.2123,5.212,5.2115,5.2106,5.2104,5.2098,5.209,5.209,5.2104,5.2106,5.2108,5.211,5.209,0,0,0,0,0,5.2212,5.2207,5.2193,5.219,5.2186,5.2173,5.2168,5.216,5.215,5.2145,5.2134,5.2123,5.2115,5.211,5.2102,5.2098,5.2095,5.2098,5.21,5.2101,5.2102,5.2101,5.2102,5.2084,5.2084,5.2084,0,0,5.2218,5.2208,5.2206,5.2193,5.2185,5.218,5.2169,5.2164,5.216,5.2144,5.2138,5.2129,5.2116,5.2112,5.2109,5.2104,5.2106,5.2102,5.2104,5.2103,5.2101,5.2103,5.2105,5.2084,5.2084,5.2084,0,0,5.2226,5.2218,5.2216,5.2209,5.2198,5.2189,5.2189,5.2175,5.2169,5.2163,5.2151,5.2146,5.2132,5.2124,5.2118,5.2125,5.2116,5.2123,5.2132,5.2131,5.2133,5.2134,5.2138,5.2139,5.2123,5.2123,5.2123,0,5.2234,5.2227,5.2215,5.2212,5.2207,5.2194,5.2192,5.2185,5.2171,5.2168,5.2164,5.2148,5.2138,5.2132,5.2134,5.2129,5.2129,5.2125,5.2134,5.2135,5.2136,5.2139,5.214,5.2124,5.2124,5.2124,5.2124,0,5.2238,5.2233,5.2233,5.2222,5.2217,5.2214,5.2202,5.2198,5.2191,5.2183,5.2177,5.2165,5.2155,5.2153,5.2145,5.2146,5.2144,5.2137,5.2128,5.2139,5.2142,5.2143,5.2126,5.2125,5.2125,5.2125,0,0,5.2253,5.2238,5.2238,5.2234,5.2221,5.2217,5.2214,5.2206,5.2203,5.2194,5.2191,5.2181,5.2175,5.2169,5.216,5.2159,5.2167,5.2152,5.2151,5.2156,5.2169,5.2175,5.2177,5.2161,5.2161,5.2162,5.2171,0,5.2259,5.2254,5.2245,5.2242,5.2238,5.2227,5.2224,5.2217,5.2209,5.2204,5.2195,5.2189,5.2181,5.2177,5.2176,5.2166,5.217,5.2166,5.2158,5.2158,5.2162,5.2178,5.2184,5.2193,5.2172,5.2172,5.2172,0,5.2265,5.226,5.2258,5.2248,5.2246,5.2244,5.2236,5.2232,5.2223,5.2218,5.2212,5.2203,5.2199,5.2191,5.2186,5.2183,5.218,5.2175,5.2175,5.2174,5.2166,5.2178,5.2196,5.2198,5.2173,5.2173,5.2173,0,5.2278,5.2269,5.2267,5.2264,5.2252,5.2251,5.2246,5.2237,5.2233,5.2227,5.2224,5.2216,5.2212,5.2206,5.2196,5.2191,5.2192,5.2183,5.2187,5.2188,5.2188,5.2188,5.2206,5.2185,5.2185,5.2185,5.2185,0,5.2286,5.2285,5.2273,5.2272,5.2271,5.2261,5.226,5.2253,5.2246,5.2243,5.2232,5.223,5.2216,5.2211,5.2203,5.22,5.2198,5.2194,5.2192,5.2195,5.2196,5.2193,5.2192,5.2185,5.2185,5.2185,5.2185,0,5.2299,5.2291,5.2288,5.2278,5.2276,5.2276,5.2267,5.2265,5.2258,5.2255,5.2254,5.2242,5.2237,5.2226,5.2217,5.2211,5.2211,5.2206,5.2214,5.2213,5.2218,5.2218,5.2235,5.2237,5.2215,5.2215,5.2215,0,5.2305,5.2305,5.2295,5.2294,5.229,5.2286,5.2283,5.2273,5.227,5.2262,5.2261,5.2256,5.2251,5.2243,5.2233,5.2227,5.2223,5.2229,5.2221,5.2226,5.2224,5.2224,5.2225,5.2231,5.2231,5.2231,5.2231,0,5.2317,5.2313,5.231,5.2306,5.2303,5.2298,5.2293,5.2292,5.2281,5.2278,5.2274,5.227,5.2263,5.2258,5.225,5.2244,5.2236,5.2234,5.2235,5.2238,5.2243,5.2242,5.222,5.2233,5.2233,5.2233,5.2233,5.2233,5.2326,5.2326,5.2321,5.2318,5.2313,5.231,5.2308,5.2302,5.2299,5.2293,5.2287,5.2284,5.2276,5.2266,5.2261,5.2258,5.2254,5.2254,5.2255,5.2255,5.2257,5.2244,5.2256,5.2256,5.2256,5.2256,5.2256,0,5.2338,5.2335,5.2332,5.2327,5.2325,5.2319,5.2314,5.2312,5.231,5.2304,5.2301,5.2296,5.2292,5.2283,5.2278,5.2277,5.2273,5.2276,5.2276,5.2275,5.2261,5.2261,5.2279,5.2279,5.2279,5.2279,5.2279,5.2279,5.2344,5.2344,5.234,5.2338,5.2334,5.2332,5.233,5.2327,5.2323,5.2319,5.2316,5.2311,5.2304,5.2299,5.2295,5.2292,5.2291,5.2295,5.2291,5.2278,5.2276,5.2274,5.2274,5.2295,5.2295,5.2306,5.2306,5.2306]}]]